AEE0990 LGAV-LTFM

Flight info

Callsign AEE0990
Flight time 1h 3m
Altitude 35000
Route LGAV/03R N0450F350 DCT KRO UN604 INBET DCT LTFM/34L
Aircraft A320/M-SDE3/L

Departure

Time 2026-05-04 19:24
Airport Athens Eleftherios Venizelos International Airport (LGAV)

Arrival

Time 2026-05-04 20:28
Airport İstanbul Airport (LTFM)
Time Latitude Longitude Altitude Speed Heading
2026-05-04 19:24 38.03664 24.20342 9428 ft 274 kts 70°
2026-05-04 19:24 38.04202 24.22684 10154 ft 280 kts 70°
2026-05-04 19:25 38.04758 24.25098 10618 ft 294 kts 69°
2026-05-04 19:25 38.05366 24.27677 10807 ft 316 kts 68°
2026-05-04 19:25 38.06312 24.30257 11019 ft 328 kts 51°
2026-05-04 19:25 38.07699 24.32595 11564 ft 335 kts 50°
2026-05-04 19:26 38.09095 24.34940 12235 ft 338 kts 50°
2026-05-04 19:26 38.10522 24.37337 12889 ft 341 kts 50°
2026-05-04 19:26 38.11966 24.39760 13565 ft 345 kts 50°
2026-05-04 19:26 38.13421 24.42202 14184 ft 349 kts 50°
2026-05-04 19:27 38.14896 24.44675 14775 ft 353 kts 50°
2026-05-04 19:27 38.16384 24.47171 15330 ft 356 kts 50°
2026-05-04 19:27 38.17884 24.49694 15875 ft 359 kts 50°
2026-05-04 19:27 38.19397 24.52248 16414 ft 363 kts 50°
2026-05-04 19:28 38.20922 24.54829 16953 ft 366 kts 50°
2026-05-04 19:28 38.22459 24.57428 17494 ft 369 kts 50°
2026-05-04 19:28 38.24011 24.60051 18053 ft 372 kts 50°
2026-05-04 19:28 38.25572 24.62691 18638 ft 374 kts 50°
2026-05-04 19:29 38.27119 24.65307 19136 ft 377 kts 50°
2026-05-04 19:29 38.28721 24.68017 19638 ft 380 kts 50°
2026-05-04 19:29 38.30294 24.70681 20126 ft 382 kts 50°
2026-05-04 19:29 38.31900 24.73402 20614 ft 385 kts 50°
2026-05-04 19:30 38.33515 24.76141 21094 ft 388 kts 51°
2026-05-04 19:30 38.35143 24.78904 21541 ft 391 kts 51°
2026-05-04 19:30 38.36779 24.81685 21983 ft 394 kts 51°
2026-05-04 19:30 38.38430 24.84490 22411 ft 397 kts 51°
2026-05-04 19:31 38.40094 24.87315 22864 ft 399 kts 51°
2026-05-04 19:31 38.41764 24.90157 23309 ft 402 kts 51°
2026-05-04 19:31 38.43439 24.93015 23733 ft 404 kts 51°
2026-05-04 19:31 38.45132 24.95904 24087 ft 407 kts 51°
2026-05-04 19:32 38.46831 24.98807 24445 ft 409 kts 51°
2026-05-04 19:32 38.48538 25.01727 24831 ft 411 kts 51°
2026-05-04 19:32 38.50250 25.04658 25231 ft 412 kts 51°
2026-05-04 19:32 38.51965 25.07597 25597 ft 414 kts 51°
2026-05-04 19:33 38.53690 25.10551 25950 ft 416 kts 52°
2026-05-04 19:33 38.55423 25.13525 26293 ft 418 kts 52°
2026-05-04 19:33 38.57162 25.16512 26643 ft 420 kts 52°
2026-05-04 19:33 38.58911 25.19518 26993 ft 422 kts 52°
2026-05-04 19:34 38.60644 25.22497 27341 ft 424 kts 52°
2026-05-04 19:34 38.62408 25.25533 27685 ft 426 kts 52°
2026-05-04 19:34 38.64181 25.28592 28029 ft 429 kts 52°
2026-05-04 19:34 38.65959 25.31661 28365 ft 431 kts 52°
2026-05-04 19:35 38.67747 25.34751 28735 ft 432 kts 52°
2026-05-04 19:35 38.69531 25.37836 29256 ft 429 kts 52°
2026-05-04 19:35 38.71305 25.40910 29793 ft 427 kts 53°
2026-05-04 19:35 38.73064 25.43964 30280 ft 426 kts 53°
2026-05-04 19:36 38.74821 25.47012 30672 ft 425 kts 52°
2026-05-04 19:36 38.76577 25.50057 31039 ft 425 kts 52°
2026-05-04 19:36 38.78336 25.53110 31396 ft 426 kts 52°
2026-05-04 19:36 38.80097 25.56164 31762 ft 426 kts 52°
2026-05-04 19:37 38.81855 25.59222 32123 ft 426 kts 52°
2026-05-04 19:37 38.83616 25.62287 32485 ft 427 kts 52°
2026-05-04 19:37 38.85378 25.65362 32875 ft 427 kts 52°
2026-05-04 19:37 38.87128 25.68427 33280 ft 426 kts 52°
2026-05-04 19:38 38.88881 25.71499 33664 ft 426 kts 52°
2026-05-04 19:38 38.90633 25.74564 34036 ft 426 kts 52°
2026-05-04 19:38 38.92369 25.77597 34348 ft 426 kts 52°
2026-05-04 19:38 38.94124 25.80668 34626 ft 427 kts 52°
2026-05-04 19:39 38.95886 25.83752 34903 ft 428 kts 52°
2026-05-04 19:39 38.97652 25.86841 35063 ft 429 kts 52°
2026-05-04 19:39 38.99428 25.89958 35105 ft 435 kts 52°
2026-05-04 19:40 39.03007 25.96264 35117 ft 436 kts 52°
2026-05-04 19:40 39.06566 26.02548 35095 ft 433 kts 52°
2026-05-04 19:41 39.10109 26.08814 35095 ft 433 kts 52°
2026-05-04 19:41 39.13657 26.15086 35090 ft 433 kts 52°
2026-05-04 19:42 39.17175 26.21321 35107 ft 432 kts 52°
2026-05-04 19:42 39.20710 26.27595 35124 ft 432 kts 52°
2026-05-04 19:43 39.24229 26.33858 35115 ft 430 kts 52°
2026-05-04 19:43 39.27733 26.40112 35113 ft 430 kts 52°
2026-05-04 19:44 39.31229 26.46369 35111 ft 429 kts 51°
2026-05-04 19:44 39.35324 26.51812 35104 ft 424 kts 34°
2026-05-04 19:45 39.40171 26.56152 35096 ft 424 kts 33°
2026-05-04 19:45 39.45016 26.60491 35115 ft 423 kts 33°
2026-05-04 19:46 39.49839 26.64835 35113 ft 422 kts 33°
2026-05-04 19:46 39.54659 26.69179 35119 ft 421 kts 33°
2026-05-04 19:47 39.59473 26.73510 35116 ft 421 kts 33°
2026-05-04 19:47 39.64282 26.77855 35117 ft 421 kts 33°
2026-05-04 19:48 39.69087 26.82203 35113 ft 421 kts 33°
2026-05-04 19:48 39.73894 26.86556 35112 ft 421 kts 33°
2026-05-04 19:49 39.78661 26.90885 35125 ft 420 kts 33°
2026-05-04 19:49 39.83452 26.95248 35119 ft 420 kts 33°
2026-05-04 19:50 39.88237 26.99609 35108 ft 419 kts 33°
2026-05-04 19:50 39.93015 27.03961 35104 ft 419 kts 33°
2026-05-04 19:51 39.97776 27.08337 35076 ft 417 kts 33°
2026-05-04 19:51 40.00149 27.10515 34504 ft 417 kts 34°
2026-05-04 19:51 40.02521 27.12686 33772 ft 418 kts 34°
2026-05-04 19:51 40.04931 27.14887 32887 ft 423 kts 34°
2026-05-04 19:52 40.07333 27.17083 32273 ft 421 kts 34°
2026-05-04 19:52 40.09731 27.19284 31650 ft 420 kts 34°
2026-05-04 19:52 40.12123 27.21485 30889 ft 421 kts 34°
2026-05-04 19:52 40.14516 27.23690 30273 ft 419 kts 34°
2026-05-04 19:53 40.16955 27.25716 29675 ft 413 kts 25°
2026-05-04 19:53 40.19585 27.27062 29402 ft 401 kts 15°
2026-05-04 19:53 40.22305 27.27735 28939 ft 395 kts
2026-05-04 19:53 40.25029 27.27940 28397 ft 391 kts
2026-05-04 19:54 40.27734 27.28124 27864 ft 387 kts
2026-05-04 19:54 40.30413 27.28305 27306 ft 384 kts
2026-05-04 19:54 40.33069 27.28483 26782 ft 381 kts
2026-05-04 19:54 40.35673 27.28659 26277 ft 377 kts
2026-05-04 19:55 40.38314 27.28839 25792 ft 374 kts
2026-05-04 19:55 40.40863 27.29013 25315 ft 370 kts
2026-05-04 19:55 40.43425 27.29187 24849 ft 367 kts
2026-05-04 19:55 40.45963 27.29359 24413 ft 364 kts
2026-05-04 19:56 40.48476 27.29531 23942 ft 358 kts
2026-05-04 19:56 40.50944 27.29702 23104 ft 352 kts
2026-05-04 19:56 40.53371 27.29871 22246 ft 347 kts
2026-05-04 19:56 40.55766 27.30035 21372 ft 341 kts
2026-05-04 19:57 40.58124 27.30198 20552 ft 336 kts
2026-05-04 19:57 40.60440 27.30358 19741 ft 330 kts
2026-05-04 19:57 40.62713 27.30515 18947 ft 325 kts
2026-05-04 19:57 40.64961 27.30670 18137 ft 320 kts
2026-05-04 19:58 40.67161 27.30820 17576 ft 307 kts
2026-05-04 19:58 40.69218 27.30956 17332 ft 288 kts
2026-05-04 19:58 40.71163 27.31086 16801 ft 280 kts
2026-05-04 19:58 40.73116 27.31246 16197 ft 275 kts
2026-05-04 19:59 40.74960 27.31815 15600 ft 270 kts 20°
2026-05-04 19:59 40.76704 27.32677 15154 ft 264 kts 20°
2026-05-04 19:59 40.78403 27.33517 14609 ft 265 kts 20°
2026-05-04 19:59 40.80135 27.34369 14288 ft 264 kts 20°
2026-05-04 20:00 40.81864 27.35216 14049 ft 265 kts 20°
2026-05-04 20:00 40.83592 27.36061 13800 ft 264 kts 20°
2026-05-04 20:00 40.85320 27.36906 13522 ft 265 kts 20°
2026-05-04 20:00 40.87047 27.37754 13247 ft 264 kts 20°
2026-05-04 20:01 40.88769 27.38602 12982 ft 264 kts 20°
2026-05-04 20:01 40.90484 27.39447 12719 ft 263 kts 20°
2026-05-04 20:01 40.92193 27.40289 12452 ft 262 kts 20°
2026-05-04 20:01 40.93803 27.41389 12182 ft 263 kts 38°
2026-05-04 20:02 40.94897 27.43340 11933 ft 271 kts 63°
2026-05-04 20:02 40.95162 27.45842 11686 ft 286 kts 91°
2026-05-04 20:02 40.94568 27.48400 11449 ft 295 kts 104°
2026-05-04 20:02 40.93826 27.50899 11203 ft 296 kts 104°
2026-05-04 20:03 40.93061 27.53427 10957 ft 295 kts 105°
2026-05-04 20:03 40.92299 27.55942 10710 ft 294 kts 104°
2026-05-04 20:03 40.91543 27.58452 10466 ft 293 kts 104°
2026-05-04 20:03 40.90944 27.60994 10226 ft 286 kts 93°
2026-05-04 20:04 40.90767 27.63564 9980 ft 279 kts 84°
2026-05-04 20:04 40.90704 27.66135 9691 ft 280 kts 85°
2026-05-04 20:04 40.90633 27.68717 9265 ft 282 kts 85°
2026-05-04 20:04 40.90557 27.71275 9096 ft 274 kts 85°
2026-05-04 20:05 40.90478 27.73751 9012 ft 264 kts 85°
2026-05-04 20:05 40.90498 27.76113 9022 ft 251 kts 75°
2026-05-04 20:05 40.90802 27.78330 9024 ft 248 kts 72°
2026-05-04 20:05 40.91121 27.80570 9025 ft 248 kts 72°
2026-05-04 20:06 40.91438 27.82818 9021 ft 248 kts 72°
2026-05-04 20:06 40.91794 27.85041 9021 ft 244 kts 64°
2026-05-04 20:06 40.92636 27.86911 9026 ft 234 kts 41°
2026-05-04 20:06 40.93947 27.88113 9026 ft 229 kts 20°
2026-05-04 20:07 40.95500 27.88513 9028 ft 229 kts
2026-05-04 20:07 40.97101 27.88488 9029 ft 230 kts
2026-05-04 20:07 40.98705 27.88461 9031 ft 231 kts
2026-05-04 20:07 41.00311 27.88435 9033 ft 231 kts
2026-05-04 20:08 41.01913 27.88425 9035 ft 230 kts
2026-05-04 20:08 41.03464 27.88805 9037 ft 230 kts 14°
2026-05-04 20:08 41.05015 27.89337 9037 ft 230 kts 14°
2026-05-04 20:08 41.06562 27.89861 9037 ft 229 kts 14°
2026-05-04 20:09 41.08108 27.90382 9035 ft 229 kts 14°
2026-05-04 20:09 41.09654 27.90904 9033 ft 229 kts 14°
2026-05-04 20:09 41.11195 27.91425 9036 ft 229 kts 14°
2026-05-04 20:09 41.12217 27.91888 9034 ft 229 kts 24°
2026-05-04 20:10 41.13602 27.92897 9037 ft 230 kts 27°
2026-05-04 20:10 41.14998 27.93942 9036 ft 230 kts 27°
2026-05-04 20:10 41.16397 27.94989 9037 ft 230 kts 27°
2026-05-04 20:10 41.17793 27.96034 9037 ft 230 kts 27°
2026-05-04 20:11 41.19191 27.97077 9037 ft 230 kts 27°
2026-05-04 20:11 41.20575 27.98156 9034 ft 231 kts 33°
2026-05-04 20:11 41.21774 27.99594 9037 ft 234 kts 41°
2026-05-04 20:11 41.22935 28.01108 9033 ft 233 kts 41°
2026-05-04 20:12 41.24096 28.02618 9034 ft 233 kts 41°
2026-05-04 20:12 41.25255 28.04135 9031 ft 234 kts 43°
2026-05-04 20:12 41.26078 28.06013 9029 ft 244 kts 70°
2026-05-04 20:12 41.26077 28.08311 8984 ft 261 kts 100°
2026-05-04 20:13 41.25080 28.10372 8746 ft 275 kts 133°
2026-05-04 20:13 41.23570 28.11965 8560 ft 278 kts 137°
2026-05-04 20:13 41.22037 28.13535 8335 ft 278 kts 137°
2026-05-04 20:13 41.20503 28.15101 8155 ft 278 kts 137°
2026-05-04 20:14 41.18986 28.16649 7955 ft 278 kts 137°
2026-05-04 20:14 41.17457 28.18216 7759 ft 277 kts 136°
2026-05-04 20:14 41.15937 28.19779 7546 ft 277 kts 136°
2026-05-04 20:14 41.14417 28.21344 7368 ft 276 kts 136°
2026-05-04 20:15 41.12904 28.22903 7184 ft 276 kts 136°
2026-05-04 20:15 41.11387 28.24465 7005 ft 276 kts 136°
2026-05-04 20:15 41.09869 28.26026 6823 ft 275 kts 136°
2026-05-04 20:15 41.08358 28.27579 6639 ft 275 kts 136°
2026-05-04 20:16 41.06875 28.29156 6456 ft 269 kts 129°
2026-05-04 20:16 41.05836 28.31095 6265 ft 249 kts 105°
2026-05-04 20:16 41.05442 28.33219 6084 ft 230 kts 86°
2026-05-04 20:16 41.05303 28.35303 5899 ft 224 kts 86°
2026-05-04 20:17 41.05166 28.37347 5744 ft 222 kts 86°
2026-05-04 20:17 41.05029 28.39360 5562 ft 216 kts 86°
2026-05-04 20:17 41.04893 28.41319 5381 ft 211 kts 86°
2026-05-04 20:17 41.04761 28.43226 5198 ft 205 kts 85°
2026-05-04 20:18 41.04632 28.45090 5015 ft 202 kts 85°
2026-05-04 20:18 41.04505 28.46938 4847 ft 201 kts 86°
2026-05-04 20:18 41.04379 28.48778 4675 ft 200 kts 86°
2026-05-04 20:18 41.04255 28.50592 4487 ft 200 kts 87°
2026-05-04 20:19 41.04130 28.52416 4311 ft 199 kts 87°
2026-05-04 20:19 41.04005 28.54240 4131 ft 199 kts 87°
2026-05-04 20:19 41.03880 28.56056 3951 ft 197 kts 87°
2026-05-04 20:19 41.03755 28.57859 3772 ft 196 kts 88°
2026-05-04 20:20 41.03630 28.59657 3597 ft 195 kts 88°
2026-05-04 20:20 41.03505 28.61448 3426 ft 195 kts 88°
2026-05-04 20:20 41.03378 28.63220 3301 ft 189 kts 89°
2026-05-04 20:20 41.03255 28.64901 3165 ft 178 kts 88°
2026-05-04 20:21 41.03140 28.66504 3071 ft 178 kts 89°
2026-05-04 20:21 41.03070 28.68172 3033 ft 181 kts 78°
2026-05-04 20:21 41.04365 28.70759 3034 ft 170 kts 25°
2026-05-04 20:22 41.05491 28.71160 3036 ft 169 kts
2026-05-04 20:22 41.06668 28.71133 3034 ft 169 kts 360°
2026-05-04 20:22 41.07847 28.71108 3026 ft 169 kts 360°
2026-05-04 20:22 41.09008 28.71085 3029 ft 169 kts 360°
2026-05-04 20:23 41.10183 28.71062 3024 ft 169 kts 359°
2026-05-04 20:23 41.11355 28.71039 3024 ft 163 kts 360°
2026-05-04 20:23 41.12417 28.71018 2992 ft 146 kts 360°
2026-05-04 20:23 41.13404 28.70999 2888 ft 139 kts 359°
2026-05-04 20:24 41.14363 28.70980 2736 ft 137 kts 359°
2026-05-04 20:24 41.15312 28.70962 2566 ft 136 kts 359°
2026-05-04 20:24 41.16256 28.70943 2387 ft 136 kts 359°
2026-05-04 20:24 41.17201 28.70925 2197 ft 136 kts 359°
2026-05-04 20:25 41.18152 28.70906 2025 ft 136 kts 359°
2026-05-04 20:25 41.19087 28.70888 1837 ft 134 kts 359°
2026-05-04 20:25 41.20008 28.70870 1652 ft 134 kts 359°
2026-05-04 20:25 41.20939 28.70851 1471 ft 134 kts 359°
2026-05-04 20:26 41.21870 28.70826 1257 ft 134 kts 358°
2026-05-04 20:26 41.22807 28.70798 996 ft 135 kts 357°
2026-05-04 20:26 41.23757 28.70784 852 ft 138 kts 356°
2026-05-04 20:26 41.24718 28.70759 614 ft 137 kts 357°
2026-05-04 20:27 41.25669 28.70757 374 ft 135 kts 356°
2026-05-04 20:27 41.26615 28.70741 215 ft 136 kts 356°
2026-05-04 20:27 41.27463 28.70721 181 ft 112 kts 356°
2026-05-04 20:27 41.28096 28.70710 181 ft 67 kts 359°
2026-05-04 20:28 41.28446 28.70702 177 ft 45 kts 359°
2026-05-04 20:28 41.28750 28.70689 175 ft 37 kts 359°
2026-05-04 20:28 41.28972 28.70684 179 ft 32 kts 358°
2026-05-04 20:28 41.29179 28.70673 180 ft 24 kts
2026-05-04 20:29 41.29351 28.70671 182 ft 26 kts 359°
2026-05-04 20:29 41.29539 28.70680 180 ft 28 kts
2026-05-04 20:29 41.29653 28.70746 180 ft 12 kts 78°
2026-05-04 20:29 41.29655 28.70781 179 ft 2 kts 88°
2026-05-04 20:30 41.29656 28.70832 178 ft 12 kts 89°
2026-05-04 20:30 41.29657 28.71012 177 ft 25 kts 88°
2026-05-04 20:30 41.29658 28.71091 178 ft 2 kts 93°
2026-05-04 20:30 41.29656 28.71128 178 ft 6 kts 96°
2026-05-04 20:31 41.29627 28.71160 178 ft 7 kts 173°
2026-05-04 20:31 41.29567 28.71164 178 ft 10 kts 177°
2026-05-04 20:31 41.29485 28.71175 177 ft 13 kts 173°
2026-05-04 20:31 41.29458 28.71178 177 ft 3 kts 176°
2026-05-04 20:32 41.29446 28.71196 177 ft 4 kts 91°
2026-05-04 20:32 41.29460 28.71310 177 ft 24 kts 81°
2026-05-04 20:32 41.29468 28.71626 177 ft 39 kts 91°
2026-05-04 20:32 41.29474 28.71960 176 ft 37 kts 89°
2026-05-04 20:33 41.29473 28.72097 176 ft 1 kts 92°
2026-05-04 20:33 41.29466 28.72100 176 ft 1 kts 171°
2026-05-04 20:33 41.29421 28.72085 176 ft 13 kts 192°
2026-05-04 20:33 41.29383 28.72082 176 ft 0 kts 179°